FW5273 Weather Reports


time (UTC)temp
F
wind
direction
speed
knots
gust
knots
rain 1hr
in
rain 24hr
in
rain mn
in
humidity
%
barometer
mb
20260505035036 0 0.0 0.0 0.00 0.00 0.00
20260505034556 0 0.0 0.0 0.00 0.00 0.00
20260505033537 0 0.0 0.0 0.00 0.00 0.00
20260505032536 0 0.0 0.0 0.00 0.00 0.00
20260505031556 0 0.0 0.0 0.00 0.00 0.00
20260505030559 0 0.0 0.0 0.00 0.00 0.00
20260505025535 0 0.0 0.0 0.00 0.00 0.00
20260505024538 0 0.0 0.0 0.00 0.00 0.00
20260505023537 0 0.0 0.0 0.00 0.00 0.00
20260505022617 0 0.0 0.0 0.00 0.00 0.00
20260505021538 0 0.0 0.0 0.00 0.00 0.00
20260505020536 0 0.0 0.0 0.00 0.00 0.00
20260505015535 0 0.0 0.0 0.00 0.00 0.00
20260505014536 0 0.0 0.0 0.00 0.00 0.00
20260505013556 0 0.0 0.0 0.00 0.00 0.00
20260505013038 0 0.0 0.0 0.00 0.00 0.00
20260505012037 0 0.0 0.0 0.00 0.00 0.00
20260505011039 0 0.0 0.0 0.00 0.00 0.00
20260505010038 0 0.0 0.0 0.00 0.00 0.00
20260505005543 36 0 0.9 0.0 0.00 0.00 0.00 68
20260505005040 36 0 2.6 7.0 0.00 0.00 0.00 68
20260505004039 36 0 3.5 8.7 0.00 0.00 0.00 67
20260505003059 36 0 2.6 7.0 0.00 0.00 0.00 67
20260505002040 36 0 1.7 5.2 0.00 0.00 0.00 67
20260505001101 36 0 3.5 7.8 0.00 0.00 0.00 66
20260505000041 37 0 4.3 8.7 0.00 0.00 0.00 66
20260504235041 37 0 1.7 7.8 0.00 0.00 0.00 68
20260504234038 36 0 2.6 8.7 0.00 0.00 0.00 69
20260504233040 36 0 2.6 8.7 0.00 0.00 0.00 68
20260504232041 36 0 3.5 7.8 0.00 0.00 0.00 69
20260504231039 37 0 2.6 8.7 0.00 0.00 0.00 69
20260504230101 36 0 4.3 7.8 0.00 0.00 0.00 69
20260504225039 37 0 2.6 8.7 0.00 0.00 0.00 70
20260504224039 37 0 2.6 7.8 0.00 0.00 0.00 70
20260504223038 37 0 3.5 8.7 0.00 0.00 0.00 69
20260504222040 37 0 3.5 10.4 0.00 0.00 0.00 70
20260504221039 37 0 5.2 9.6 0.00 0.00 0.00 70
20260504220040 37 0 4.3 8.7 0.00 0.00 0.00 70
20260504215100 37 0 3.5 8.7 0.00 0.00 0.00 71
20260504214041 37 0 6.1 8.7 0.00 0.00 0.00 70
20260504213101 38 0 5.2 8.7 0.00 0.00 0.00 70
20260504212042 38 0 3.5 8.7 0.00 0.00 0.00 71
20260504211039 37 0 5.2 7.8 0.00 0.00 0.00 74
20260504210041 37 0 3.5 9.6 0.00 0.00 0.00 77
20260504205059 37 0 4.3 9.6 0.00 0.00 0.00 76
20260504204041 38 0 4.3 9.6 0.00 0.00 0.00 77
20260504203038 38 0 3.5 8.7 0.00 0.00 0.00 78
20260504202041 38 0 4.3 8.7 0.00 0.00 0.00 75
20260504201040 38 0 5.2 10.4 0.00 0.00 0.00 73
20260504200041 38 0 4.3 9.6 0.00 0.00 0.00 74
20260504195039 38 0 4.3 8.7 0.00 0.00 0.00 72
20260504194040 38 0 5.2 9.6 0.00 0.00 0.00 72
20260504193039 38 0 3.5 8.7 0.00 0.00 0.00 72
20260504192041 38 0 6.1 10.4 0.00 0.00 0.00 71
20260504191100 38 0 5.2 9.6 0.00 0.00 0.00 71
20260504185042 38 0 7.0 10.4 0.00 0.00 0.00 66
20260504184040 39 0 5.2 9.6 0.00 0.00 0.00 66
20260504183040 39 0 6.1 10.4 0.00 0.00 0.00 67
20260504182121 39 0 6.1 10.4 0.00 0.00 0.00 66
20260504181038 39 0 3.5 8.7 0.00 0.00 0.00 68
20260504180040 39 0 6.1 10.4 0.00 0.00 0.00 68
20260504175120 39 0 5.2 9.6 0.00 0.00 0.00 73
20260504174102 38 0 4.3 8.7 0.00 0.00 0.00 77
20260504173040 39 0 2.6 7.8 0.00 0.00 0.00 76
20260504172040 39 0 5.2 8.7 0.00 0.00 0.00 72
20260504171041 40 0 4.3 9.6 0.00 0.00 0.00 72
20260504150537 0 0.0 0.0 0.00 0.00 0.00
20260504141038 0 0.0 0.0 0.00 0.00 0.00
20260504100537 0 0.0 0.0 0.00 0.00 0.00
20260504081036 0 0.0 0.0 0.00 0.00 0.00
20260504045037 0 0.0 0.0 0.00 0.00 0.00
20260504044036 0 0.0 0.0 0.00 0.00 0.00
20260504043537 0 0.0 0.0 0.00 0.00 0.00
20260504042537 0 0.0 0.0 0.00 0.00 0.00
20260504041535 0 0.0 0.0 0.00 0.00 0.00
20260504040536 0 0.0 0.0 0.00 0.00 0.00
20260504035536 0 0.0 0.0 0.00 0.00 0.00